x

Agreed £285,000   $  ¥  €325,413 $378,623 ¥43,153,560

West Overcliff Drive, West Cliff, Bournemouth

  • 2 Bedrooms
  • 2 Bathrooms
  • 1 Reception Room
  • Leasehold
Grey large

Description

** AN IDEAL INVESTMENT WITH EXCELLENT RENTAL YIELD OR FIRST HOME *

A SPACIOUS and BEAUTIFULLY presented, two DOUBLE bedroom, top floor, CHARACTER apartment, located in the sought-after West Overcliff Drive Conservation Area.

The Location

The Westcliff area offers easy access to the award-winning Blue Flag beach of Middle Chine, which stretches to Bournemouth beach through to Sandbanks Peninsula. The property is also protected from the main road offering a peaceful environment and is directly opposite Alum Chine which also offers a 5 minute walking route down to the beach. Westbourne shopping village is a short and level walk, and offers a variety of shopping facilities including Marks and Spencer, restaurants and bars. Bournemouth town centre is also nearby offering a more diverse range of high street shops. The property is further enhanced by excellent road and rail communications.

The Property

This fantastic apartment has been very well maintained by the current owners, and offers the flexibility of being an ideal purchase for an easy lock up and leave, permanent residence or investment. The accommodation, which spans the entire floor, comprises of a spacious entrance hall with doors to all principle rooms, a large living/dining room which offers a feature open fireplace with decorative surround, kitchen/breakfast room, offering ample storage and white goods. There is also space for a small breakfast table and chairs. There are two double bedrooms, the master having the benefit of an en suite shower room, and a further family bathroom. Further benefits to this apartment include gas fired central heating, sash windows and allocated parking.

General

Leasehold (166yrs) - Option to purchase the freehold Ground rent - Peppercorn Service charge - £93 a month Council tax band - D

Measurements

Measurements Living Room - 17'5ft x 14'3ft Kitchen - 24'7ft x 6'9ft Master bedroom - 13'3ft x 11'6ft Second bedroom - 12'5ft x 11'8ft Bathroom - 8ft x 5'9ft

  • Branksome Railway Station
  • Bournemouth Railway Station
  • Parkstone Railway Station

Further Details

  • Tenure: Leasehold
  • Reference: POL210047

Location Map

Street View

Recent Comparable Sales

YOUeye shows comparable property transactions in the last 12 months (within a 500m radius).
> More interesting local property data from YOUeye.

Street Postcode Last sale date Last sale price
7, Flat 5, Herbert Road BH4 8HD 19/07/2021 £235,000
Wesley Grange, 7, Flat 9, Portarlington Road BH4 8BU 24/06/2021 £265,000
11, Flat 2, Beaulieu Road BH4 8HY 24/06/2021 £260,000
Stourton Court, 27, Flat 6, Marlborough Road BH4 8DE 22/06/2021 £255,000
Eaton Court, 43, Flat 4, Alumhurst Road BH4 8EW 14/05/2021 £242,000
Burnaby Court, 37, Flat 3, Burnaby Road BH4 8JG 07/05/2021 £207,500
Faversham, 50, Flat 1, West Cliff Road BH4 8BB 28/04/2021 £340,000
Earlswood, 21, Flat 11, Clarendon Road BH4 8AL 19/04/2021 £325,000
Kent House, 12, Flat 7, Marlborough Road BH4 8DG 14/04/2021 £260,000
West Cliff House, 45, Flat 10, West Cliff Road BH4 8AZ 12/04/2021 £260,000
40, Flat 3, Tower Road BH13 6JA 01/04/2021 £412,500
2, Flat 1, Groveley Road BH4 8HF 01/04/2021 £238,000
The Chines, 43, Flat 9, Alum Chine Road BH4 8DN 01/04/2021 £162,000
56, Flat 7, Alumhurst Road BH4 8EU 29/03/2021 £169,000
18, Flat 6, Alumdale Road BH4 8HX 26/03/2021 £122,000
Mildenhall, 25, Flat 9, West Cliff Road BH4 8AX 26/03/2021 £180,000
Eden Court, 37, Flat 9, West Cliff Road BH4 8AZ 26/03/2021 £265,000
The Chines, 43, Flat 25, Alum Chine Road BH4 8DN 26/03/2021 £100,000
Romney Court, 28, Flat 11, Portarlington Road BH4 8BZ 25/03/2021 £193,000
Cliff Walk, 70, Flat C4, West Cliff Road BH4 8BE 24/03/2021 £225,000
Temple Trees, 13, Flat 12, Portarlington Road BH4 8BU 24/03/2021 £239,000
Kent House, 12, Flat 8, Marlborough Road BH4 8DG 23/03/2021 £283,000
Baronscroft, 4, Flat 4, Milner Road BH4 8AD 23/03/2021 £685,000
Pineview, 10, Flat 6, Earle Road BH4 8JT 22/03/2021 £385,000
Woodlands, 33, Flat 6, Burnaby Road BH4 8JG 19/03/2021 £179,000
Grosvenor Hall, 19, Flat 1, Grosvenor Road BH4 8BQ 19/03/2021 £170,000
Cresdeen, 46 A, Flat 4, Alumhurst Road BH4 8EU 18/03/2021 £215,000
Wesley Grange, 7, Flat 2, Portarlington Road BH4 8BU 17/03/2021 £322,500
Chineside Heights, 5, Flat 10, Earle Road BH4 8QJ 15/03/2021 £415,000
Elmhurst Heights, 15, Flat 7, Studland Road BH4 8HL 11/03/2021 £263,000
48, Flat 1, Alumhurst Road BH4 8EU 11/03/2021 £179,000
Faversham, 50, Flat 9, West Cliff Road BH4 8BB 05/03/2021 £330,000
24, Flat 2, Burnaby Road BH4 8JF 05/03/2021 £210,000
54, Flat 5, R L Stevenson Avenue BH4 8EG 03/03/2021 £175,000
Greenacres, 20, Flat 1, Marlborough Road BH4 8DQ 26/02/2021 £225,000
Boston Lodge, 18, Flat 3, Marlborough Road BH4 8DQ 26/02/2021 £225,000
15 B, Herbert Road BH4 8HD 26/02/2021 £395,000
Brownlow Court, 22, Flat 1, Marlborough Road BH4 8DQ 26/02/2021 £120,000
7, Flat 6, Alumdale Road BH4 8HX 26/02/2021 £207,500
Branksome Gate, 52, Flat 2, Western Road BH13 6EX 24/02/2021 £425,000
Baronscroft, 4, Flat 2, Milner Road BH4 8AD 24/02/2021 £723,000
76, Flat 5, Alumhurst Road BH4 8EX 15/02/2021 £227,500
15 A, Herbert Road BH4 8HD 15/02/2021 £400,000
22, Flat 2, Rosemount Road BH4 8HB 10/02/2021 £140,000
Eaton Court, 41, Flat 6, Alumhurst Road BH4 8EW 09/02/2021 £243,000
Chine View Mansions, 2, Flat 1, Mckinley Road BH4 8AQ 08/02/2021 £625,000
7, Flat 4, Rosemount Road BH4 8HB 29/01/2021 £218,000
Woodlands, 33, Flat 2, Burnaby Road BH4 8JG 29/01/2021 £275,000
Cheriton, 47, Flat 3, West Cliff Road BH4 8AZ 28/01/2021 £265,000
77, Flat 2, Alumhurst Road BH4 8HR 21/01/2021 £201,000
Chine View Mansions, 2, Flat 2, Mckinley Road BH4 8AQ 06/01/2021 £520,000
West Cliff Palms, 68, Flat 12, West Cliff Road BH4 8BE 06/01/2021 £430,000
Nightingales, 5, Flat 4, Milner Road BH4 8AD 18/12/2020 £410,000
Rayscliff, 58, Flat 9, West Cliff Road BH4 8BE 17/12/2020 £297,500
Amersham Court, 30, Flat 9, Marlborough Road BH4 8DH 15/12/2020 £277,000
Stirling Court, 20, Flat 3, Portarlington Road BH4 8BY 14/12/2020 £225,000
Farrington, 54, Flat 1, West Cliff Road BH4 8BE 11/12/2020 £437,000
4, Flat 4, Earle Road BH4 8JQ 07/12/2020 £111,333
West Cliff Palms, 68, Flat 5, West Cliff Road BH4 8BE 07/12/2020 £330,000
Elmhurst Heights, 15, Flat 8, Studland Road BH4 8HL 04/12/2020 £267,500
4, Flat 3, Earle Road BH4 8JQ 04/12/2020 £245,000
Pembroke Place, 70 72, Flat 11, Alumhurst Road BH4 8EX 04/12/2020 £226,000
Wilton Place, 66, Flat 7, West Cliff Road BH4 8BE 04/12/2020 £315,000
Woodford Lodge, 21 23, Flat 1, Studland Road BH4 8HJ 04/12/2020 £365,000
60, Flat 2, Alumhurst Road BH4 8EU 03/12/2020 £245,000
86 A, Alumhurst Road BH4 8HT 02/12/2020 £322,500
Woodford Lodge, 21 23, Flat 7, Studland Road BH4 8HJ 02/12/2020 £208,000
Chinebridge, 37, Flat 1, Beaulieu Road BH4 8HY 26/11/2020 £390,000
The Chines, 43, Flat 22, Alum Chine Road BH4 8DN 23/11/2020 £175,000
Mayfair, 74, Flat 20, West Cliff Road BH4 8BG 23/11/2020 £318,000
47, Flat 4, Alumhurst Road BH4 8EW 13/11/2020 £146,000
Gadbridge Court, 31, Flat 15, West Cliff Road BH4 8AY 11/11/2020 £249,950
Greenacres, 20, Flat 4, Marlborough Road BH4 8DQ 03/11/2020 £245,000
Mansfield Court, 26, Flat 11, Portarlington Road BH4 8BZ 02/11/2020 £272,000
Alington, 25, Flat 8, Marlborough Road BH4 8DE 30/10/2020 £250,000
Westhaven, 18, Flat 4, Burnaby Road BH4 8JF 22/10/2020 £186,500
Mayfair, 74, Flat 16, West Cliff Road BH4 8BG 22/10/2020 £332,000
Mansfield Court, 26, Flat 2, Portarlington Road BH4 8BZ 16/10/2020 £235,000
Alverton Hall, 33, Flat 3, West Cliff Road BH4 8AY 08/10/2020 £297,950
Belmour Lodge, 28, Flat 7, Marlborough Road BH4 8DH 05/10/2020 £310,000
25, Flat 6, Mckinley Road BH4 8AG 02/10/2020 £187,000
West Cliff House, 45, Flat 11, West Cliff Road BH4 8AZ 28/09/2020 £270,000
Chine View Mansions, 2, Flat 6, Mckinley Road BH4 8AQ 21/09/2020 £231,000
Beaufort House, 39, Flat 7, West Cliff Road BH4 8AW 18/09/2020 £292,500
  • Flat no stick Flat Sale

Book a Property ViewingArrange a viewing